Weather in Contagem

Brazil     19°57′51″S   44°01′36″W
temp.,
°C
wind,
m/s
gust,
m/s
humid.,
%
clouds,
%
prec.,
mm/h
press.,
hPa
HPBL,
m
26 january, tue
tue2600:00+20e247964 0.0 1016273
03:00+19e258480 0.0 1015262
06:00+18e388810 0.0 1016387
09:00+23ene466444 0.0 1017873
12:00+27ne3451100 0.0 10161501
15:00+28ne3449100 0.1 10131620
18:00+25ne3660100 0.1 1013900
21:00+21ene367278 0.1 1015415
27 january, wed
wed2700:00+20e258228 0.0 1016360
03:00+19e378714 0.0 1015382
06:00+18e378732 0.0 1016357
09:00+23ene356019 0.0 1017765
12:00+28ne44400 0.0 10161507
15:00+29ne44300 0.0 10131784
18:00+24ne354613 0.0 1013663
21:00+20ene376622 0.0 1014418
28 january, thu
thu2800:00+18e37740 0.0 1015359
03:00+18ene26790 0.0 1015330
06:00+17ese12810 0.0 1016132
09:00+24ne33500 0.0 1016842
12:00+29n34328 0.0 10141662
15:00+29n343323 0.0 10112029
18:00+26nne235015 0.0 1011863
21:00+22e245925 0.0 1014377
29 january, fri
fri2900:00+20ese25720 0.0 1015313
03:00+19ese23730 0.0 1014173
06:00+18e23792 0.0 1016179
09:00+25ne235712 0.0 1017745
12:00+30nne233719 0.0 10152074
15:00+30nne333958 0.0 10122104
18:00+26ene2354100 0.1 1012986
21:00+22e246580 0.2 1014348
30 january, sat
sat3000:00+20e25770 0.0 1015344
03:00+19e26820 0.0 1015336
06:00+19e26870 0.0 1017315
09:00+25ene35560 0.0 1018783
12:00+30nne33380 0.0 10161910
15:00+30ne333521 0.0 10132216
18:00+27ene234663 0.0 1013923
21:00+22e366537 0.0 1015431